DW8849 Weather Reports


Display with metric or nautical units.
time (UTC)temp
F
wind
direction
speed
MPH
gust
MPH
rain 1hr
in
rain 24hr
in
rain mn
in
humidity
%
barometer
mb
20260504081556 62 103 1.0 3.0 0.00 0.00 0.00 83 1016.7
20260504081055 62 102 0.0 2.0 0.00 0.00 0.00 83 1016.8
20260504080556 62 111 0.0 4.0 0.00 0.00 0.00 83 1016.9
20260504050534 62 150 2.0 4.0 0.00 0.00 0.00 84 1019.2
20260504045632 62 136 2.0 3.0 0.00 0.00 0.00 84 1019.1
20260504045032 62 140 2.0 3.0 0.00 0.00 0.00 84 1019.3
20260504044541 62 148 1.0 3.0 0.00 0.00 0.00 84 1019.3
20260504044031 62 146 2.0 3.0 0.00 0.00 0.00 83 1019.3
20260504043531 62 140 2.0 3.0 0.00 0.00 0.00 84 1019.4
20260504043035 62 150 2.0 3.0 0.00 0.00 0.00 84 1019.4
20260504042531 62 144 2.0 3.0 0.00 0.00 0.00 83 1019.5
20260504042030 62 137 1.0 3.0 0.00 0.00 0.00 83 1019.6
20260504041530 62 140 1.0 3.0 0.00 0.00 0.00 83 1019.6
20260504041030 63 142 2.0 3.0 0.00 0.00 0.00 82 1019.5
20260504040532 63 140 2.0 3.0 0.00 0.00 0.00 82 1019.5
20260504040033 63 143 2.0 3.0 0.00 0.00 0.00 83 1019.5
20260504035530 63 142 2.0 3.0 0.00 0.00 0.00 83 1019.4
20260504035029 63 145 2.0 3.0 0.00 0.00 0.00 83 1019.5
20260504034538 63 131 2.0 3.0 0.00 0.00 0.00 82 1019.4
20260504034030 64 141 2.0 3.0 0.00 0.00 0.00 81 1019.5
20260504033529 64 142 2.0 4.0 0.00 0.00 0.00 81 1019.4
20260504033039 64 134 2.0 3.0 0.00 0.00 0.00 81 1019.4
20260504032529 64 149 2.0 3.0 0.00 0.00 0.00 80 1019.3
20260504032029 64 151 2.0 3.0 0.00 0.00 0.00 80 1019.4
20260504031533 64 149 1.0 2.0 0.00 0.00 0.00 79 1019.4
20260504031029 65 149 1.0 2.0 0.00 0.00 0.00 79 1019.4
20260504030528 65 144 1.0 3.0 0.00 0.00 0.00 77 1019.4
20260504030028 65 145 2.0 3.0 0.00 0.00 0.00 76 1019.3
20260504025528 66 140 1.0 3.0 0.00 0.00 0.00 75 1019.2
20260504025031 66 136 1.0 4.0 0.00 0.00 0.00 75 1019.2
20260504024530 66 132 2.0 6.0 0.00 0.00 0.00 74 1019.1
20260504024026 66 127 3.0 7.0 0.00 0.00 0.00 74 1019.0
20260504023527 66 124 3.0 7.0 0.00 0.00 0.00 74 1018.9
20260504023026 66 113 3.0 6.0 0.00 0.00 0.00 74 1018.9
20260504022526 67 120 3.0 4.0 0.00 0.00 0.00 74 1018.9
20260504022025 67 123 2.0 6.0 0.00 0.00 0.00 73 1019.0
20260504021532 67 117 3.0 7.0 0.00 0.00 0.00 72 1018.9
20260504021024 67 117 3.0 7.0 0.00 0.00 0.00 71 1018.7
20260504020525 68 125 3.0 7.0 0.00 0.00 0.00 70 1018.9
20260504020025 68 103 3.0 7.0 0.00 0.00 0.00 70 1018.8
20260504015524 68 114 3.0 6.0 0.00 0.00 0.00 70 1018.8
20260504015025 68 121 3.0 7.0 0.00 0.00 0.00 70 1018.8
20260504014524 68 119 4.0 7.0 0.00 0.00 0.00 70 1018.8
20260504014025 68 122 3.0 7.0 0.00 0.00 0.00 69 1018.7
20260504013528 69 124 4.0 8.0 0.00 0.00 0.00 69 1018.8
20260504013033 69 123 5.0 8.0 0.00 0.00 0.00 67 1018.8
20260504012524 69 130 5.0 8.0 0.00 0.00 0.00 67 1018.7
20260504012124 69 139 5.0 8.0 0.00 0.00 0.00 67 1018.6
20260504011522 70 122 5.0 9.0 0.00 0.00 0.00 66 1018.7
20260504011021 70 132 5.0 9.0 0.00 0.00 0.00 65 1018.7
20260504010525 70 127 5.0 8.0 0.00 0.00 0.00 64 1018.8
20260504010021 71 140 6.0 9.0 0.00 0.00 0.00 63 1018.7
20260504005521 71 136 7.0 10.0 0.00 0.00 0.00 62 1018.8
20260504005021 72 129 7.0 11.0 0.00 0.00 0.00 61 1018.9
20260504004521 72 138 9.0 12.0 0.00 0.00 0.00 59 1018.9
20260504004019 72 138 8.0 12.0 0.00 0.00 0.00 59 1018.9
20260504003519 73 148 8.0 12.0 0.00 0.00 0.00 58 1018.9
20260504003019 73 136 8.0 14.0 0.00 0.00 0.00 57 1019.0
20260504002519 73 141 11.0 14.0 0.00 0.00 0.00 56 1019.0
20260504002019 73 155 10.0 14.0 0.00 0.00 0.00 55 1018.9
20260504001519 74 144 11.0 15.0 0.00 0.00 0.00 55 1018.9
20260504001019 74 136 10.0 14.0 0.00 0.00 0.00 54 1018.9
20260504000521 74 140 10.0 14.0 0.00 0.00 0.00 53 1019.0
20260504000020 74 130 9.0 15.0 0.00 0.00 0.00 54 1018.9
20260503235517 75 138 10.0 15.0 0.00 0.00 0.00 54 1018.9
20260503235017 75 131 9.0 17.0 0.00 0.00 0.00 52 1018.9
20260503234517 75 135 12.0 17.0 0.00 0.00 0.00 52 1018.9
20260503234023 75 137 12.0 17.0 0.00 0.00 0.00 52 1018.9
20260503233517 75 123 11.0 19.0 0.00 0.00 0.00 52 1018.8
20260503233016 75 135 14.0 19.0 0.00 0.00 0.00 51 1018.9
20260503232519 76 149 12.0 16.0 0.00 0.00 0.00 50 1019.0
20260503232020 76 145 10.0 15.0 0.00 0.00 0.00 50 1019.0
20260503231515 76 130 10.0 15.0 0.00 0.00 0.00 48 1019.0
20260503231016 76 144 10.0 14.0 0.00 0.00 0.00 49 1019.0
20260503230515 76 124 7.0 16.0 0.00 0.00 0.00 48 1019.0
20260503230014 76 128 12.0 16.0 0.00 0.00 0.00 48 1019.0
20260503225514 76 110 7.0 15.0 0.00 0.00 0.00 49 1019.1
20260503225014 77 115 11.0 15.0 0.00 0.00 0.00 48 1019.1
20260503224514 77 128 10.0 15.0 0.00 0.00 0.00 51 1019.1
20260503224023 77 132 11.0 15.0 0.00 0.00 0.00 48 1019.1
20260503223516 77 132 10.0 18.0 0.00 0.00 0.00 48 1019.2
20260503223013 77 128 13.0 18.0 0.00 0.00 0.00 50 1019.1
20260503222512 77 145 11.0 15.0 0.00 0.00 0.00 49 1019.3
20260503222013 77 109 8.0 15.0 0.00 0.00 0.00 49 1019.3
20260503221513 77 97 9.0 15.0 0.00 0.00 0.00 48 1019.4
20260503221011 77 107 11.0 17.0 0.00 0.00 0.00 48 1019.4
20260503220510 77 109 9.0 17.0 0.00 0.00 0.00 50 1019.5
20260503220010 77 142 9.0 17.0 0.00 0.00 0.00 48 1019.6
20260503215509 77 130 12.0 16.0 0.00 0.00 0.00 48 1019.5
20260503215008 77 150 12.0 22.0 0.00 0.00 0.00 50 1019.7
20260503214508 77 114 12.0 22.0 0.00 0.00 0.00 50 1019.6
20260503214012 77 121 12.0 18.0 0.00 0.00 0.00 50 1019.8
20260503213506 76 145 13.0 19.0 0.00 0.00 0.00 50 1019.9
20260503213010 77 126 11.0 17.0 0.00 0.00 0.00 50 1020.0
20260503212505 77 113 9.0 17.0 0.00 0.00 0.00 47 1020.0
20260503212004 78 133 11.0 18.0 0.00 0.00 0.00 46 1020.1
20260503211507 78 126 10.0 18.0 0.00 0.00 0.00 50 1020.3
20260503211006 78 146 11.0 18.0 0.00 0.00 0.00 48 1020.4
20260503210503 78 122 12.0 19.0 0.00 0.00 0.00 46 1020.4
20260503210002 78 135 11.0 19.0 0.00 0.00 0.00 47 1020.5
20260503205501 78 107 10.0 18.0 0.00 0.00 0.00 45 1020.5
20260503205003 77 101 10.0 15.0 0.00 0.00 0.00 46 1020.6
20260503204607 77 157 10.0 17.0 0.00 0.00 0.00 47 1020.7
20260503204059 78 109 11.0 17.0 0.00 0.00 0.00 44 1020.8
20260503203559 78 86 8.0 15.0 0.00 0.00 0.00 44 1020.9
20260503203058 78 57 9.0 14.0 0.00 0.00 0.00 42 1020.8
20260503202600 78 101 8.0 15.0 0.00 0.00 0.00 44 1021.0
20260503202056 78 103 8.0 14.0 0.00 0.00 0.00 43 1021.1
20260503201556 77 96 9.0 15.0 0.00 0.00 0.00 39 1021.2
20260503201057 78 114 9.0 15.0 0.00 0.00 0.00 42 1021.1
20260503200554 77 96 10.0 16.0 0.00 0.00 0.00 42 1021.3
20260503200054 78 132 9.0 15.0 0.00 0.00 0.00 44 1021.4
20260503195552 78 104 10.0 13.0 0.00 0.00 0.00 42 1021.4
20260503195053 78 64 9.0 13.0 0.00 0.00 0.00 47 1021.4
20260503194555 78 123 9.0 13.0 0.00 0.00 0.00 43 1021.6
20260503194051 78 87 8.0 18.0 0.00 0.00 0.00 43 1021.6
20260503193551 77 117 11.0 18.0 0.00 0.00 0.00 45 1021.7
20260503193054 78 109 9.0 14.0 0.00 0.00 0.00 45 1021.8
20260503192551 78 128 9.0 14.0 0.00 0.00 0.00 49 1021.7
20260503192053 77 98 8.0 16.0 0.00 0.00 0.00 44 1021.8
20260503191549 77 127 11.0 16.0 0.00 0.00 0.00 43 1021.8
20260503191049 77 103 7.0 13.0 0.00 0.00 0.00 42 1021.8
20260503190548 77 111 5.0 13.0 0.00 0.00 0.00 44 1022.0
20260503190049 77 97 7.0 13.0 0.00 0.00 0.00 39 1022.1
20260503185548 78 148 8.0 13.0 0.00 0.00 0.00 45 1022.1
20260503185049 77 130 8.0 13.0 0.00 0.00 0.00 40 1022.3
20260503184549 77 75 7.0 14.0 0.00 0.00 0.00 44 1022.3
20260503184048 77 104 6.0 11.0 0.00 0.00 0.00 44 1022.3
20260503183548 78 127 4.0 14.0 0.00 0.00 0.00 39 1022.5
20260503183048 78 85 10.0 14.0 0.00 0.00 0.00 42 1022.5
20260503182547 78 84 7.0 14.0 0.00 0.00 0.00 39 1022.6
20260503182045 77 100 5.0 13.0 0.00 0.00 0.00 41 1022.6
20260503181617 77 121 10.0 15.0 0.00 0.00 0.00 39 1022.7
20260503181045 77 87 9.0 15.0 0.00 0.00 0.00 42 1022.8
20260503180545 77 124 8.0 14.0 0.00 0.00 0.00 38 1022.9
20260503180045 77 74 9.0 13.0 0.00 0.00 0.00 41 1022.9
20260503175544 77 130 6.0 13.0 0.00 0.00 0.00 40 1023.1
20260503175044 77 115 9.0 15.0 0.00 0.00 0.00 40 1023.0
20260503174543 77 98 8.0 15.0 0.00 0.00 0.00 37 1023.1
20260503174043 77 73 7.0 13.0 0.00 0.00 0.00 37 1023.2
20260503173543 77 71 9.0 14.0 0.00 0.00 0.00 38 1023.3
20260503173053 76 90 8.0 14.0 0.00 0.00 0.00 41 1023.4
20260503172541 77 87 4.0 12.0 0.00 0.00 0.00 39 1023.5
20260503172042 77 86 8.0 13.0 0.00 0.00 0.00 37 1023.5
20260503171540 77 57 6.0 13.0 0.00 0.00 0.00 38 1023.6
20260503171039 77 136 7.0 12.0 0.00 0.00 0.00 39 1023.6
20260503170540 76 236 2.0 13.0 0.00 0.00 0.00 37 1023.8
20260503150520 73 109 1.0 7.0 0.00 0.00 0.00 61 1024.0
20260503131049 60 344 3.0 5.0 0.00 0.00 0.00 91 1023.1
20260503130550 60 346 3.0 5.0 0.00 0.00 0.00 91 1023.1
20260503110540 55 307 0.0 0.0 0.00 0.00 0.00 92 1021.9